Torna al catalogo

FENGYUN 1C DEB

AttivoPO
NORAD 29898·DEBRIS·🇨🇳 China

Lanciato May 10, 1999 da Taiyuan Satellite Launch Center

Loading…

Prossimi Passaggi (prossime 24 ore)

TLE

AggiornatoSource: Space-Track

Epoca: Sep 14, 2026, 08:30 UTC

1 29898U 99025GU  26257.35457644  .00001876  00000-0  11111-2 0  9990
2 29898  98.2372 216.5077 0418800 164.2004 350.3421 13.72463024969391

Traccia FENGYUN 1C DEB in tempo reale con AllMySat

Download on the App Store